Satellite: METEOR-M
Catalog number: 35865
Epoch time:      10328.01857395
Element set:     862
Inclination:      098.7374 deg
RA of node:       020.4998 deg
Eccentricity:    0.0001738
Arg of perigee:   275.5478 deg
Mean anomaly:     084.5492 deg
Mean motion:   14.21833183 rev/day
Decay rate:       1.76e-06 rev/day^2
Epoch rev:            6143
Checksum:              326

Satellite: RS-38
Catalog number: 35869
Epoch time:      10328.04280522
Element set:     874
Inclination:      098.7365 deg
RA of node:       020.5652 deg
Eccentricity:    0.0003899
Arg of perigee:   266.8828 deg
Mean anomaly:     093.1898 deg
Mean motion:   14.21994215 rev/day
Decay rate:       1.77e-06 rev/day^2
Epoch rev:            6144
Checksum:              341

/EX


_______________________________________________
Via the Keps mailing list courtesy of AMSAT-NA
http://amsat.org/mailman/listinfo/keps

--- ViaMAIL!/WC v1.60d
 * Origin: Chowdanet (401-724-4410) telnet://chowdanet.com  (1:323/120)